Location: Bratislava
(48.1500°N, 17.1170°E)
Time: 21:55:00
(UTC+02:00)

ISS - Pass Details

Date: 28 March 2019
Orbit: 408 x 410 km, 51.6° (Epoch: 23 April)

Event Time Altitude Azimuth Distance (km) Brightness Sun altitude
Rises 20:55:27 0° 287° (WNW) 2,338 1.1 -25.4°
Reaches altitude 10° 20:57:35 10° 293° (WNW) 1,475 0.0 -25.6°
Enters shadow 20:59:22 27° 308° (NW) 819 -1.7 -25.9°
